Weather History for Roxboro, NC

Change the Weather History Date:

Saturday, January 12, 2013

  Actual Average Record
Temperature  
Mean Temperature 57 °F -  
Max Temperature 68 °F 44 °F 71 °F (2005)
Min Temperature 46 °F 22 °F 2 °F (1968)
Degree Days  
Heating Degree Days 8    
Growing Degree Days 7 (Base 50)    
Moisture  
Dew Point 56 °F    
Average Humidity 95    
Maximum Humidity 100    
Minimum Humidity 73    
Precipitation  
Precipitation 0.00 in - - ()
Sea Level Pressure  
Sea Level Pressure 30.14 in    
Wind  
Wind Speed 2 mph (SW)    
Max Wind Speed 6 mph    
Max Gust Speed -    
Visibility 6 miles    
Events Fog    
Averages and records for this station are not official NWS values.
T = Trace of Precipitation, MM = Missing Value Source: NWS Daily Summary

Daily Weather History Graph

Daily Weather History Graph

Search for Another Location

Airport:

Trip Planner

Search our weather history database for the weather conditions in past years. The results will help you decide how hot, cold, wet, or windy it might be!

Date:

Astronomy

Jan. 12, 2013 Rise Set
Actual Time 7:27 AM EST 5:21 PM EST
Civil Twilight 6:59 AM EST 5:50 PM EST
Nautical Twilight 6:27 AM EST 6:21 PM EST
Astronomical Twilight 5:56 AM EST 6:52 PM EST
Moon 7:47 AM EST (1/12) 6:45 PM EST (1/12)
Length of Visible Light 10h 51m
Length of Day
9h 54m
New Moon, 1% of the Moon is Illuminated
Jan 12
New Moon
Jan 18
First Quarter
Jan 26
Full
Feb 3
Last Quarter
Feb 10
New

Hourly Weather History & Observations

Time (EST) Temp. Windchill Dew Point Humidity Pressure Visibility Wind Dir Wind Speed Gust Speed Precip Events Conditions
12:15 AM 46.4 °F 44.3 °F 46.4 °F 100% 30.17 in 1.8 mi WSW 4.6 mph - N/A   Overcast
12:35 AM 48.2 °F - 48.2 °F 100% 30.16 in 2.5 mi West 3.5 mph - N/A   Overcast
1:15 AM 50.0 °F - 50.0 °F 100% 30.16 in 1.5 mi WSW 3.5 mph - N/A   Overcast
1:35 AM 50.0 °F - 50.0 °F 100% 30.15 in 5.0 mi Calm Calm - N/A   Overcast
1:55 AM 50.0 °F - 50.0 °F 100% 30.15 in 5.0 mi SW 4.6 mph - N/A   Overcast
2:15 AM 50.0 °F - 50.0 °F 100% 30.16 in 5.0 mi Calm Calm - N/A   Overcast
2:35 AM 50.0 °F - 50.0 °F 100% 30.16 in 4.0 mi WSW 3.5 mph - N/A   Overcast
2:55 AM 50.0 °F - 50.0 °F 100% 30.16 in 3.0 mi Calm Calm - N/A   Overcast
3:15 AM 50.0 °F - 50.0 °F 100% 30.16 in 1.5 mi SW 3.5 mph - N/A   Overcast
3:35 AM 50.0 °F - 50.0 °F 100% 30.16 in 2.5 mi West 3.5 mph - N/A   Overcast
3:55 AM 50.0 °F - 50.0 °F 100% 30.15 in 0.8 mi WSW 4.6 mph - N/A   Overcast
4:15 AM 50.0 °F - 50.0 °F 100% 30.14 in 0.2 mi Calm Calm - N/A Fog Fog
4:35 AM 50.0 °F - 50.0 °F 100% 30.14 in 0.5 mi West 3.5 mph - N/A Fog Fog
4:55 AM 50.0 °F - 50.0 °F 100% 30.14 in 0.5 mi Calm Calm - N/A Fog Fog
5:15 AM 50.0 °F - 50.0 °F 100% 30.13 in 0.5 mi WSW 3.5 mph - N/A Fog Fog
5:35 AM 51.8 °F - 51.8 °F 100% 30.13 in 0.2 mi SW 3.5 mph - N/A Fog Fog
5:55 AM 51.8 °F - 51.8 °F 100% 30.14 in 0.5 mi Calm Calm - N/A Fog Fog
6:15 AM 53.6 °F - 53.6 °F 100% 30.14 in 0.8 mi West 3.5 mph - N/A   Overcast
6:35 AM 53.6 °F - 53.6 °F 100% 30.14 in 1.2 mi West 3.5 mph - N/A   Overcast
6:55 AM 53.6 °F - 53.6 °F 100% 30.14 in 3.0 mi Calm Calm - N/A   Overcast
7:15 AM 53.6 °F - 53.6 °F 100% 30.15 in 3.0 mi SSW 3.5 mph - N/A   Overcast
7:35 AM 53.6 °F - 53.6 °F 100% 30.15 in 1.2 mi SW 4.6 mph - N/A   Overcast
7:55 AM 53.6 °F - 53.6 °F 100% 30.16 in 0.8 mi SW 3.5 mph - N/A   Overcast
8:15 AM 53.6 °F - 53.6 °F 100% 30.16 in 0.5 mi SW 5.8 mph - N/A Fog Fog
8:35 AM 53.6 °F - 53.6 °F 100% 30.16 in 0.5 mi SW 4.6 mph - N/A Fog Fog
8:55 AM 53.6 °F - 53.6 °F 100% 30.17 in 1.5 mi WSW 4.6 mph - N/A   Overcast
9:15 AM 55.4 °F - 55.4 °F 100% 30.17 in 4.0 mi West 4.6 mph - N/A   Overcast
9:35 AM 55.4 °F - 55.4 °F 100% 30.17 in 5.0 mi WSW 3.5 mph - N/A   Overcast
9:55 AM 55.4 °F - 55.4 °F 100% 30.18 in 7.0 mi North - - N/A   Overcast
10:15 AM 55.4 °F - 55.4 °F 100% 30.17 in 10.0 mi Calm Calm - N/A   Overcast
10:35 AM 57.2 °F - 57.2 °F 100% 30.18 in 10.0 mi West 4.6 mph - N/A   Overcast
10:55 AM 59.0 °F - 59.0 °F 100% 30.17 in 10.0 mi West 3.5 mph - N/A   Overcast
11:15 AM 59.0 °F - 59.0 °F 100% 30.17 in 10.0 mi North - - N/A   Mostly Cloudy
11:35 AM 60.8 °F - 60.8 °F 100% 30.16 in 10.0 mi WNW 3.5 mph - N/A   Scattered Clouds
11:55 AM 62.6 °F - 60.8 °F 94% 30.15 in 10.0 mi Calm Calm - N/A   Clear
12:15 PM 64.4 °F - 60.8 °F 88% 30.14 in 10.0 mi Calm Calm - N/A   Clear
12:35 PM 64.4 °F - 60.8 °F 88% 30.14 in 10.0 mi Calm Calm - N/A   Clear
12:55 PM 66.2 °F - 60.8 °F 83% 30.13 in 10.0 mi South 3.5 mph - N/A   Scattered Clouds
1:15 PM 68.0 °F - 60.8 °F 78% 30.13 in 10.0 mi Calm Calm - N/A   Scattered Clouds
1:35 PM 68.0 °F - 60.8 °F 78% 30.13 in 10.0 mi Calm Calm - N/A   Mostly Cloudy
1:55 PM 68.0 °F - 59.0 °F 73% 30.13 in 10.0 mi Calm Calm - N/A   Scattered Clouds
2:15 PM 68.0 °F - 59.0 °F 73% 30.13 in 10.0 mi SW 4.6 mph - N/A   Mostly Cloudy
2:35 PM 68.0 °F - 59.0 °F 73% 30.13 in 10.0 mi WSW 3.5 mph - N/A   Mostly Cloudy
2:55 PM 68.0 °F - 60.8 °F 78% 30.14 in 10.0 mi SW 5.8 mph - N/A   Overcast
3:15 PM 68.0 °F - 59.0 °F 73% 30.14 in 10.0 mi SW 5.8 mph - N/A   Overcast
3:35 PM 68.0 °F - 60.8 °F 78% 30.13 in 10.0 mi SW 3.5 mph - N/A   Mostly Cloudy
3:55 PM 68.0 °F - 60.8 °F 78% 30.13 in 10.0 mi North - - N/A   Mostly Cloudy
4:15 PM 68.0 °F - 60.8 °F 78% 30.14 in 10.0 mi North - - N/A   Overcast
4:35 PM 68.0 °F - 60.8 °F 78% 30.13 in 10.0 mi Calm Calm - N/A   Scattered Clouds
4:55 PM 64.4 °F - 60.8 °F 88% 30.14 in 10.0 mi Calm Calm - N/A   Scattered Clouds
5:15 PM 64.4 °F - 60.8 °F 88% 30.13 in 10.0 mi Calm Calm - N/A   Clear
5:35 PM 62.6 °F - 60.8 °F 94% 30.13 in 10.0 mi Calm Calm - N/A   Clear
5:55 PM 62.6 °F - 60.8 °F 94% 30.14 in 10.0 mi Calm Calm - N/A   Clear
6:15 PM 60.8 °F - 60.8 °F 100% 30.13 in 10.0 mi SE 3.5 mph - N/A   Clear
6:35 PM 59.0 °F - 59.0 °F 100% 30.13 in 10.0 mi Calm Calm - N/A   Clear
6:55 PM 57.2 °F - 57.2 °F 100% 30.13 in 10.0 mi Calm Calm - N/A   Clear
7:15 PM 57.2 °F - 57.2 °F 100% 30.13 in 7.0 mi Calm Calm - N/A   Clear
7:35 PM 59.0 °F - 59.0 °F 100% 30.13 in 7.0 mi Calm Calm - N/A   Clear
7:55 PM 57.2 °F - 57.2 °F 100% 30.13 in 1.2 mi Calm Calm - N/A   Mist
8:15 PM 55.4 °F - 55.4 °F 100% 30.13 in 0.5 mi Calm Calm - N/A Fog Fog
8:35 PM 55.4 °F - 55.4 °F 100% 30.13 in 0.2 mi Calm Calm - N/A Fog Fog
8:55 PM 55.4 °F - 55.4 °F 100% 30.13 in 2.0 mi Calm Calm - N/A   Overcast
9:15 PM 55.4 °F - 55.4 °F 100% 30.13 in 4.0 mi Calm Calm - N/A   Mostly Cloudy
9:35 PM 55.4 °F - 55.4 °F 100% 30.13 in 1.5 mi Calm Calm - N/A   Overcast
9:55 PM 57.2 °F - 57.2 °F 100% 30.13 in 5.0 mi SSE 3.5 mph - N/A   Overcast
10:15 PM 59.0 °F - 59.0 °F 100% 30.13 in 7.0 mi Calm Calm - N/A   Scattered Clouds
10:35 PM 59.0 °F - 59.0 °F 100% 30.13 in 7.0 mi SSE 3.5 mph - N/A   Clear
10:55 PM 59.0 °F - 59.0 °F 100% 30.13 in 5.0 mi South 3.5 mph - N/A   Clear
11:15 PM 59.0 °F - 59.0 °F 100% 30.13 in 5.0 mi Calm Calm - N/A   Clear
11:35 PM 59.0 °F - 59.0 °F 100% 30.13 in 4.0 mi Calm Calm - N/A   Clear
11:55 PM 59.0 °F - 59.0 °F 100% 30.13 in 2.5 mi Calm Calm - N/A   Scattered Clouds